Wind_Speed
17 17 17 17 17 18 17 17 17 17 17 16 17 18 18 17 18 18 17 17 16 15 15 15 16 16 15 15 14 14 14 15 15 15 15 14 14 14 14 14 15 14 14 13 13 14 14 14 14 13 12 12 11 11 11 11 11 11 11 11 11 10 11 12 13 14 15 15 15 16 17 18 18 18 18 19 20 22 23 24 24 24 25 26 27
20 19 19 19 19 20 19 19 19 18 18 18 18 18 19 19 19 19 17 17 16 16 16 17 17 17 16 15 15 14 14 15 15 15 16 15 15 15 15 15 14 14 13 13 13 14 14 14 14 13 12 12 12 12 12 13 13 13 13 13 12 12 13 14 15 15 16 17 17 18 19 20 20 20 20 20 22 23 25 27 27 28 28 29 30
22 22 21 21 21 21 21 20 20 19 19 19 19 20 20 20 20 19 18 18 17 17 18 18 18 17 17 16 15 15 15 15 16 16 16 16 15 15 15 15 14 14 14 14 14 14 14 14 14 14 13 13 13 13 14 14 14 14 14 14 14 14 15 16 17 17 17 18 19 19 20 21 21 22 22 22 23 26 28 29 29 30 31 32 32
23 22 22 21 21 20 20 20 20 20 20 20 21 21 21 21 20 20 20 19 19 19 20 19 19 18 18 17 16 16 16 16 17 17 16 16 16 16 16 15 15 15 15 15 14 14 14 15 15 15 14 14 15 15 15 15 15 15 15 15 16 16 17 18 18 19 19 20 20 20 20 21 22 22 23 24 26 27 28 28 30 32 34 34 33
24 23 22 22 22 21 20 20 20 20 21 21 22 22 22 22 21 21 21 21 21 21 21 20 19 18 19 18 17 17 17 17 18 17 17 17 17 17 17 17 17 17 17 16 16 16 16 16 16 16 15 15 15 15 16 17 17 17 17 17 17 18 19 20 20 21 21 21 21 21 22 23 23 24 24 25 27 27 26 28 31 34 35 34 33
24 26 26 24 23 24 23 23 22 22 22 23 23 23 23 23 22 22 22 22 22 21 21 20 19 19 20 20 19 18 18 19 19 18 18 18 18 18 18 18 18 18 18 18 17 17 17 17 17 17 17 17 16 16 17 18 18 18 18 19 19 20 20 21 21 22 22 23 23 24 24 24 25 25 24 25 27 27 28 31 33 34 34 33 33
22 26 30 28 25 25 26 26 26 25 25 25 25 24 24 24 24 23 23 23 22 22 21 21 20 21 21 21 20 20 20 20 20 20 20 19 19 19 19 19 19 19 19 18 18 18 18 18 18 18 19 19 18 18 18 19 19 20 20 21 21 21 22 22 23 24 25 25 26 26 26 26 26 26 26 26 28 30 32 33 34 34 34 33 32
21 23 29 32 28 26 26 26 27 28 27 27 26 25 24 24 24 24 24 24 23 22 22 22 22 22 22 22 22 22 21 21 22 22 21 21 21 21 21 21 21 20 19 19 19 19 19 19 19 19 19 20 19 19 20 20 21 21 22 22 23 23 24 25 26 26 27 27 27 27 27 27 27 28 28 28 29 31 33 34 34 34 34 33 32
22 21 24 30 30 27 26 26 26 27 27 27 26 26 25 25 25 24 24 24 24 23 23 23 23 23 23 23 23 23 23 23 23 23 23 23 23 23 23 23 23 22 21 21 20 20 20 20 20 20 20 20 20 20 21 22 22 23 23 24 25 25 26 27 27 28 28 28 28 28 28 29 29 29 29 30 31 32 33 34 35 36 35 34 32
23 21 20 25 29 28 27 26 25 25 26 26 26 26 26 26 25 25 25 25 25 25 25 24 24 24 24 24 24 24 24 24 25 25 25 25 25 25 24 24 24 23 22 21 21 21 21 21 21 21 21 21 22 22 23 24 24 24 25 26 27 27 28 28 29 29 29 29 29 29 29 29 30 29 30 31 34 36 36 35 36 37 36 34 32
24 22 20 21 24 26 26 27 27 27 27 27 27 26 26 27 27 27 27 27 26 26 26 25 25 24 25 25 25 24 24 25 26 26 26 26 26 25 25 24 24 23 22 22 22 22 23 23 23 23 23 23 24 25 25 26 26 26 27 28 29 29 29 30 30 31 31 31 31 31 31 30 30 31 31 34 37 38 36 36 37 37 36 34 31
23 23 22 22 23 24 25 26 27 28 29 30 31 30 29 28 28 28 28 28 29 29 28 27 26 26 26 26 26 26 26 27 27 27 27 27 27 26 25 25 24 23 23 25 26 25 26 26 26 26 26 26 27 27 27 27 27 27 28 29 29 30 30 31 32 33 33 33 32 32 32 32 32 32 33 36 38 38 36 36 36 36 35 33 28
22 22 23 23 24 24 24 24 24 25 26 28 31 34 33 31 29 29 29 29 30 30 30 29 29 29 28 28 28 28 28 29 29 28 28 28 28 28 27 26 26 25 24 26 28 28 28 28 29 29 29 28 28 28 28 29 29 29 29 30 31 31 32 32 34 34 34 34 34 34 34 34 33 34 36 39 40 39 37 36 36 36 34 30 26
20 21 22 23 24 24 24 24 24 25 25 24 25 29 32 33 32 31 30 29 30 30 30 31 31 31 30 30 30 30 30 31 31 30 30 29 29 29 29 28 27 27 27 27 29 29 29 29 30 30 30 30 30 30 30 31 31 31 31 32 32 32 33 33 34 34 35 34 35 36 36 35 36 38 41 42 40 39 37 36 36 35 31 27 23
19 20 21 22 23 25 25 24 24 26 26 25 24 25 27 30 33 34 33 32 31 31 32 33 33 33 33 32 32 32 32 33 33 33 32 30 30 30 30 29 28 27 28 30 32 32 32 32 32 30 30 32 32 33 33 34 33 33 33 33 34 33 33 34 34 35 35 36 37 38 37 38 40 41 41 41 40 40 40 38 34 31 26 23 22
17 18 19 21 22 24 25 25 25 25 26 26 26 26 26 27 29 33 35 34 33 33 35 35 35 35 34 34 34 34 33 34 35 34 33 32 31 31 32 30 28 27 31 34 36 36 36 37 36 34 32 34 35 35 36 36 36 35 35 34 34 34 34 34 35 36 36 37 39 39 39 40 40 38 37 38 40 41 40 35 30 26 23 22 22
15 16 17 18 20 22 23 24 25 26 25 25 25 26 27 26 27 29 32 33 33 33 34 35 37 37 37 37 37 36 35 36 36 36 35 34 34 34 35 34 31 30 33 36 37 36 35 37 38 38 37 39 39 39 38 39 38 37 36 35 34 34 34 34 36 37 38 40 41 40 40 40 38 35 35 37 39 37 34 29 25 23 22 22 22
16 16 16 17 17 19 20 22 23 24 25 26 26 26 27 28 29 29 28 28 29 31 31 32 34 35 36 37 38 37 36 37 37 38 38 38 37 37 38 38 35 34 34 37 37 35 33 36 41 43 44 43 43 42 42 41 40 38 36 34 34 35 35 36 38 39 40 40 40 41 41 39 36 34 35 35 33 29 25 22 21 21 21 22 22
17 16 16 16 16 17 18 20 22 23 23 25 27 28 30 31 30 27 24 23 24 26 28 28 29 30 32 34 35 36 37 37 37 38 38 38 38 38 38 38 38 38 38 38 36 34 35 39 44 46 47 46 44 44 44 42 41 38 35 33 35 36 37 37 38 39 39 39 40 42 41 38 35 34 32 29 25 22 20 19 19 20 21 22 23
17 18 18 18 18 18 18 19 20 22 23 24 27 29 31 31 27 24 24 25 25 26 27 27 26 27 28 29 31 32 33 35 37 38 38 39 39 40 39 38 38 40 40 38 37 37 39 44 48 50 51 50 47 46 46 43 39 36 35 36 37 38 38 38 39 39 40 41 41 40 38 34 31 28 25 22 20 19 18 19 19 20 21 23 24
18 19 20 20 20 19 19 19 19 21 22 24 26 28 29 28 24 23 25 27 27 27 27 27 26 26 25 26 26 25 27 31 34 36 38 39 41 43 42 40 40 42 41 40 41 43 43 45 48 48 48 48 46 45 43 39 35 35 35 36 37 37 37 38 38 38 39 40 38 34 30 26 23 20 18 18 17 17 17 18 19 20 22 24 25
18 19 20 21 21 21 20 19 19 19 21 22 24 26 27 27 25 25 26 27 28 28 27 27 27 25 24 24 25 27 32 35 36 38 42 43 45 47 47 45 44 46 47 46 44 45 46 46 43 40 41 41 38 33 32 31 30 31 33 33 33 34 35 36 36 37 37 35 31 26 22 19 18 16 16 15 15 16 17 18 19 21 23 25 26
18 19 20 21 21 21 22 22 21 20 20 21 23 24 25 26 26 26 26 27 29 30 29 29 28 27 26 24 23 27 33 36 36 39 45 49 51 51 50 48 45 45 50 51 48 47 49 47 40 35 33 33 31 29 29 29 29 30 32 32 32 34 34 35 35 34 32 28 24 20 17 16 15 14 14 15 16 17 18 19 20 22 24 25 27
19 19 20 21 21 22 22 23 23 23 22 22 22 23 24 24 25 26 26 26 27 29 31 31 30 29 29 29 28 29 31 33 34 37 40 44 47 48 51 53 51 49 51 53 51 52 51 44 37 34 33 33 34 34 33 32 32 33 34 32 32 33 33 32 30 28 25 22 18 16 14 13 13 13 15 16 17 17 18 20 22 23 25 26 28
19 20 20 20 21 22 23 23 24 25 25 25 25 25 25 24 24 24 24 24 24 24 27 29 30 31 30 31 32 32 31 32 35 36 36 38 40 42 44 47 48 47 47 48 50 53 49 42 39 41 40 38 38 38 37 36 35 34 32 30 30 30 29 27 26 23 21 18 16 14 13 13 13 15 16 16 17 18 20 22 23 24 25 27 29
20 20 20 20 21 21 22 23 23 24 25 26 26 26 26 25 25 25 25 24 23 22 22 24 27 30 31 32 32 31 31 32 32 31 30 31 33 36 40 46 51 49 43 41 44 45 42 40 41 40 38 36 35 36 37 36 33 30 28 27 27 26 25 24 22 20 18 16 14 14 13 14 15 16 16 17 18 20 22 23 24 25 26 28 29
20 20 20 20 20 20 21 22 23 23 23 24 25 25 26 26 27 27 27 27 26 24 22 22 23 25 26 28 29 30 30 27 23 26 31 33 32 30 29 35 48 52 47 42 41 37 35 37 37 35 32 30 28 28 28 27 25 25 25 24 23 22 21 20 19 17 17 16 15 14 14 14 15 16 17 18 20 22 23 24 25 26 27 28 29
21 20 20 19 19 20 21 22 22 22 22 22 23 23 24 25 25 26 27 28 28 28 26 24 24 23 22 23 25 27 28 24 20 29 40 41 41 40 34 32 37 42 43 41 35 27 24 24 24 24 23 22 20 20 20 21 21 22 22 21 20 19 18 17 17 17 17 16 15 14 14 15 15 16 18 20 21 22 23 24 25 27 28 28 29
22 21 20 19 18 18 19 21 21 21 21 20 21 21 21 22 23 24 25 26 27 29 29 28 27 25 23 23 22 24 26 25 25 31 37 37 41 46 41 30 23 21 24 25 22 17 15 15 15 16 17 17 17 18 18 20 20 20 19 19 17 16 16 17 17 17 17 17 16 16 15 15 16 18 19 21 22 23 24 25 26 27 28 28 29
23 22 20 19 18 18 19 20 20 20 20 19 19 20 20 20 21 21 21 21 23 25 27 29 30 29 26 25 23 22 22 23 25 29 33 35 39 40 35 30 24 17 11 12 14 14 14 14 15 16 17 17 17 17 18 18 18 17 16 16 16 16 17 17 18 17 17 17 17 16 17 17 18 19 20 21 23 24 25 26 27 27 28 29 29
22 21 20 19 18 17 18 19 19 18 18 19 19 19 18 18 18 18 17 17 17 18 20 23 27 29 29 28 26 24 22 21 23 27 30 34 37 35 30 26 22 16 9 8 11 13 14 15 15 16 16 15 15 14 14 14 14 14 15 15 16 17 18 18 18 17 17 17 17 17 18 18 19 20 21 22 24 25 25 26 27 28 28 29 29
21 21 19 18 18 17 17 17 17 17 17 17 17 18 18 17 16 16 15 15 14 14 15 17 20 23 26 26 26 25 24 22 22 25 27 28 30 29 24 18 14 10 7 7 10 12 14 15 14 13 12 11 11 12 12 13 14 15 16 17 18 19 19 19 18 17 17 17 17 17 18 18 19 21 22 23 24 25 25 26 27 27 28 29 30
21 20 19 18 17 17 16 16 16 16 16 16 17 17 17 17 16 16 15 15 14 13 13 14 15 17 19 22 24 24 24 23 21 22 22 22 22 21 17 13 9 8 6 7 9 10 12 12 12 11 11 12 12 13 14 15 16 17 18 18 19 19 19 18 18 17 17 17 17 17 18 19 20 21 22 23 24 24 25 26 26 27 28 29 30
21 20 19 17 16 16 16 16 16 16 17 17 17 16 16 16 16 16 16 16 15 14 13 12 12 13 14 15 17 19 20 21 21 21 21 20 19 17 15 11 9 7 6 8 9 10 11 12 13 13 14 14 15 16 16 17 18 18 19 19 19 19 18 18 17 17 17 17 17 18 18 19 21 22 23 23 24 25 25 26 26 27 28 29 29
22 20 18 17 16 16 16 16 16 17 17 17 16 16 16 16 16 16 16 16 15 15 14 13 12 11 11 11 12 14 15 17 18 19 19 19 18 17 16 14 12 10 9 9 10 11 12 13 14 15 16 17 17 18 19 19 20 19 19 19 19 19 19 18 17 17 18 18 18 18 19 20 21 22 23 24 24 25 26 26 27 28 28 29 29
21 20 18 17 16 16 16 16 16 17 17 17 17 17 17 17 17 17 17 17 16 16 15 15 14 14 14 14 14 14 15 15 16 17 17 17 18 17 17 16 15 14 13 13 12 13 13 14 15 16 16 17 18 18 19 20 21 20 20 20 20 20 19 19 19 19 19 18 19 19 20 21 22 23 24 24 25 25 26 27 28 28 28 29 30
20 19 18 17 16 16 16 17 17 18 18 19 19 19 19 18 18 18 18 18 18 18 17 17 18 18 17 17 16 16 16 17 17 17 17 18 18 18 17 17 17 17 16 16 16 15 15 15 15 15 16 17 17 18 20 20 20 20 20 20 20 20 20 20 20 19 19 19 20 20 21 22 23 24 25 25 25 26 27 28 28 28 28 29 30
20 19 18 17 17 16 17 18 18 19 19 20 20 20 20 20 19 19 19 19 19 20 20 20 20 21 21 20 19 18 18 18 18 18 19 19 18 18 17 17 17 17 17 17 17 18 18 17 17 17 17 18 18 19 20 20 19 19 20 20 20 20 20 20 19 19 19 20 21 22 22 23 24 25 26 26 26 27 28 28 28 28 29 30 31
21 20 19 18 17 17 18 18 19 19 19 20 20 20 21 21 20 20 20 21 21 21 22 22 22 23 23 22 21 20 20 20 20 20 20 20 20 19 18 18 18 18 19 19 18 18 19 18 18 19 19 19 19 20 19 19 18 18 19 19 19 20 20 20 20 20 21 22 23 23 23 24 25 26 27 27 28 28 28 28 28 28 29 30 31
21 21 20 19 18 18 18 19 19 19 19 19 20 21 21 21 22 22 22 22 23 23 24 24 24 24 23 22 21 20 21 21 20 20 21 21 21 20 19 19 19 20 20 20 20 19 19 19 19 19 19 20 20 19 19 18 17 17 18 19 19 20 20 21 21 22 23 24 25 25 25 26 27 28 28 28 28 28 28 28 28 29 30 31 31
21 21 21 20 20 19 19 19 18 18 18 19 20 20 20 21 22 22 23 23 24 24 24 24 24 23 23 23 22 21 21 20 20 20 21 21 21 21 20 20 20 20 20 21 21 21 20 20 20 20 20 20 20 20 20 19 18 18 19 20 20 20 21 22 23 24 25 26 26 27 27 27 28 29 29 28 28 28 28 28 28 29 30 31 31
22 22 22 23 22 22 21 21 20 19 19 19 19 19 20 20 21 22 22 23 23 23 23 23 23 23 23 23 22 22 22 21 21 21 22 22 22 22 22 21 21 21 21 21 21 21 21 21 21 21 21 21 22 22 21 20 20 20 20 21 22 22 23 24 24 25 26 27 28 28 27 28 29 29 29 28 27 27 28 28 28 29 30 31 31
22 23 24 24 24 24 24 23 23 22 21 20 19 20 20 21 22 22 22 22 22 22 22 22 22 22 22 22 22 23 23 22 23 23 24 24 24 23 22 22 21 21 21 22 22 22 22 22 22 22 22 23 23 23 23 22 21 21 22 22 23 24 25 25 26 26 28 29 29 28 28 28 29 29 28 27 27 28 28 28 28 29 30 31 31
23 24 25 25 26 26 25 25 25 24 22 21 21 21 21 22 22 22 22 22 21 21 22 22 22 22 22 23 23 23 23 23 23 23 24 24 24 23 22 22 21 22 22 22 22 22 23 23 23 23 23 24 24 24 23 23 22 22 23 23 24 25 26 26 27 27 28 29 29 29 28 29 29 29 28 27 27 28 28 28 29 30 31 31 31
22 24 25 26 27 27 27 27 27 26 24 23 23 23 23 22 22 22 22 22 22 22 22 22 22 22 23 23 24 23 23 23 23 23 23 24 24 23 23 23 23 23 23 23 23 23 23 24 24 24 24 24 25 24 24 24 23 24 24 25 25 26 27 27 27 27 28 28 29 29 28 28 28 28 27 27 27 28 28 28 29 30 31 32 32
22 23 25 27 27 28 28 28 28 27 26 26 25 24 24 24 23 23 23 23 23 23 23 23 23 23 24 24 24 23 23 22 22 23 23 23 24 24 24 24 24 24 24 24 24 24 24 25 25 25 25 25 25 25 25 24 24 25 25 25 26 26 27 27 27 27 28 28 28 28 28 28 28 27 27 26 27 28 28 29 29 31 32 32 32
23 24 25 26 27 27 27 27 28 28 28 28 27 27 26 25 25 24 24 24 24 23 23 23 23 24 24 24 24 23 23 22 23 23 23 24 25 25 25 25 25 26 26 25 25 25 26 26 26 26 25 26 26 26 25 25 25 26 26 26 26 27 27 27 28 28 28 28 28 28 27 27 27 27 27 27 27 28 29 30 30 31 32 32 32
26 25 25 26 26 27 27 27 27 28 29 29 29 28 27 26 26 26 25 25 24 24 24 24 24 24 25 25 25 24 24 24 24 24 24 25 25 26 26 26 26 26 26 26 26 26 26 26 26 26 26 26 26 26 26 26 26 26 26 27 27 27 27 27 27 28 28 28 28 27 27 26 26 26 27 27 28 29 30 30 31 32 32 33 33
30 27 26 26 26 27 28 28 28 29 30 31 31 30 29 28 27 27 27 26 25 25 25 25 25 26 26 26 26 26 26 25 25 25 26 26 26 26 27 27 27 27 27 27 27 27 27 27 27 27 27 27 28 28 27 27 26 27 27 27 28 27 27 27 27 27 28 28 28 27 26 26 26 27 27 28 29 30 31 31 32 33 33 33 33
31 29 27 26 26 27 28 29 29 30 31 32 32 32 31 30 29 29 28 27 27 27 27 27 27 27 27 27 28 28 27 27 27 26 26 26 26 26 27 27 27 27 28 28 28 28 28 28 29 29 28 28 29 29 28 28 27 28 28 28 28 28 28 28 28 28 28 28 28 27 27 27 27 27 28 29 30 31 31 32 33 33 34 34 34
31 30 29 28 29 30 30 30 30 31 31 32 32 33 33 33 32 31 30 30 29 29 29 29 29 28 29 29 29 29 29 28 28 28 28 27 27 27 27 27 28 29 29 30 30 30 30 30 30 30 30 30 30 30 29 29 29 29 29 29 29 29 29 29 29 28 28 28 28 28 28 28 28 28 29 30 31 32 32 33 34 34 35 35 34
Wind_Direction
221 219 221 222 219 216 215 216 218 220 222 223 223 225 227 229 231 234 235 236 237 238 239 240 241 242 242 240 239 240 240 239 236 232 230 230 228 228 229 230 231 232 232 232 229 226 225 225 224 227 230 231 232 236 240 244 248 253 258 263 268 271 273 273 274 277 280 281 284 287 290 295 297 297 298 299 300 301 303 304 304 302 303 305 309
225 221 220 222 223 223 221 218 218 220 222 224 226 228 229 231 233 235 237 238 240 241 243 244 244 243 242 240 238 238 239 239 237 234 231 229 227 226 228 229 229 230 232 233 232 230 230 229 229 231 233 234 236 241 246 249 251 253 257 263 268 271 273 274 274 275 277 280 283 285 288 291 292 293 295 298 298 300 301 301 299 300 302 303 305
225 224 221 220 222 225 227 225 223 223 223 225 228 230 231 232 234 235 236 238 239 240 243 244 244 243 242 240 237 236 237 238 238 239 237 234 232 231 230 231 231 231 233 235 235 234 233 232 234 236 236 235 236 240 246 250 254 257 260 263 267 269 270 271 272 273 276 281 283 284 286 288 289 291 296 298 298 298 299 297 296 299 302 303 304
224 228 227 226 226 226 228 230 229 228 227 227 230 232 234 234 235 235 236 236 237 238 240 242 243 243 242 240 238 235 235 237 239 241 241 241 240 238 236 235 235 234 235 236 236 236 236 236 237 238 237 236 237 242 248 254 258 261 263 265 266 267 268 269 270 272 275 279 281 282 283 285 287 290 293 295 295 295 295 295 295 299 303 304 305
228 231 232 231 231 230 229 231 231 231 230 230 231 233 236 237 236 236 236 236 236 235 237 239 240 241 241 240 239 237 236 237 238 239 241 243 243 242 240 238 237 237 237 236 236 235 236 237 239 240 240 239 241 246 252 256 259 260 263 266 268 268 268 269 270 273 275 276 279 281 283 285 287 289 293 295 296 294 294 296 298 302 304 304 305
239 235 232 229 230 230 231 230 229 229 230 231 232 234 236 238 237 236 237 237 237 237 236 237 237 237 238 239 238 237 237 237 238 238 239 240 242 244 244 244 242 241 240 239 238 237 238 239 241 242 241 241 244 252 257 257 257 258 262 266 268 269 270 272 274 276 277 278 280 281 283 286 288 290 292 294 294 294 295 299 301 302 302 302 303
253 244 235 229 228 229 230 231 230 230 230 229 231 234 235 238 239 238 238 238 239 239 238 237 236 235 235 235 236 236 236 236 237 237 237 238 240 242 244 246 247 247 246 245 244 243 243 244 245 246 246 246 251 258 262 260 260 262 265 268 270 272 275 277 279 280 280 280 282 283 285 287 289 290 291 291 292 295 298 300 301 301 300 301 301
260 259 242 229 228 231 231 233 233 233 233 232 232 234 235 237 240 241 241 241 240 240 240 239 237 236 234 234 234 235 235 236 237 238 238 239 240 241 242 244 245 247 248 248 249 250 251 252 253 254 254 255 258 263 265 264 265 267 269 271 272 274 277 279 280 281 281 283 284 285 287 288 289 291 292 292 293 295 297 300 302 301 300 300 302
262 270 250 227 225 232 235 237 239 239 240 240 239 239 239 239 240 242 244 245 244 242 241 241 240 239 238 236 236 236 236 236 237 238 239 240 241 241 241 243 245 246 246 248 250 251 253 255 256 257 258 259 261 262 263 265 266 268 270 271 273 276 278 280 282 283 283 284 285 287 288 290 291 293 294 296 297 298 300 302 302 301 300 300 301
263 268 256 231 227 232 235 239 243 244 246 248 248 248 247 246 245 244 245 246 247 246 244 243 243 243 243 242 240 238 236 236 238 238 239 241 242 242 242 244 246 247 249 251 252 254 254 254 254 256 258 259 259 260 262 263 265 269 271 273 275 278 280 282 283 283 283 284 286 287 288 290 292 295 298 300 301 300 301 301 301 301 300 299 299
266 262 258 246 241 242 243 243 244 245 246 248 250 251 250 250 250 249 248 247 247 247 247 247 246 246 247 246 245 243 240 239 239 239 241 243 244 244 245 245 247 250 253 255 255 256 257 256 256 257 259 260 261 261 263 265 267 269 272 274 276 278 280 282 282 283 283 284 285 286 287 289 293 296 299 301 300 297 294 295 298 300 298 296 296
268 263 258 254 253 254 254 253 252 252 251 250 249 247 245 245 246 248 249 249 247 247 247 247 248 247 247 248 248 247 245 245 244 243 244 245 247 247 247 248 250 252 253 254 257 260 261 260 260 261 261 262 263 264 264 265 267 268 269 272 274 276 278 280 281 283 283 283 284 285 287 291 294 297 298 299 299 294 288 289 294 295 292 291 292
268 265 260 257 256 256 256 257 260 261 261 257 252 248 245 243 241 242 245 247 248 248 247 247 247 247 248 248 249 249 249 249 248 247 246 247 247 248 248 248 251 253 252 253 257 261 264 263 263 263 264 264 264 266 267 268 269 270 271 272 274 276 278 280 282 284 285 286 287 287 289 293 295 296 296 296 294 289 283 284 288 289 288 287 289
267 266 262 258 258 257 256 255 257 260 263 263 258 251 248 245 243 241 241 243 245 247 248 249 249 248 248 248 248 250 251 252 252 252 250 250 250 250 250 249 249 251 253 255 259 264 265 265 264 264 264 266 267 268 269 270 271 272 274 275 277 278 280 283 285 288 290 291 291 290 292 294 295 295 297 295 290 283 279 280 283 284 284 286 291
265 264 261 258 256 257 256 256 256 258 259 262 261 256 252 249 246 243 242 243 243 243 243 244 247 248 249 249 248 249 250 252 254 255 254 253 253 253 252 250 249 252 256 257 259 261 259 258 261 264 266 268 270 269 270 271 272 274 275 277 279 280 283 285 287 290 292 293 292 292 293 294 296 298 299 296 289 281 276 275 276 279 284 291 299
265 263 260 257 255 254 255 256 257 258 259 261 262 259 255 254 249 244 242 243 244 244 244 244 244 244 245 246 247 248 249 251 254 256 257 257 256 255 255 253 250 252 257 258 257 257 257 258 261 266 269 271 270 269 269 271 272 274 275 277 279 282 283 286 289 292 292 291 291 292 293 295 299 301 300 295 288 281 275 274 277 284 291 298 303
266 264 260 257 254 251 251 253 256 258 258 258 259 257 255 255 252 246 244 247 248 247 247 249 249 248 246 244 243 243 246 249 253 255 256 256 254 254 255 255 251 247 250 255 257 258 261 265 268 270 270 269 268 267 266 268 270 272 273 275 279 281 282 284 288 291 291 290 291 292 294 296 299 298 295 291 285 279 277 279 286 292 297 302 306
263 264 264 262 257 252 249 248 252 255 257 257 257 255 254 254 253 251 252 256 255 250 248 252 258 261 260 257 251 245 243 245 249 252 254 254 254 254 255 256 256 253 252 254 257 260 263 267 268 267 266 265 264 264 263 264 267 268 271 275 280 282 281 282 285 289 290 289 289 292 293 294 294 293 290 287 283 281 284 289 295 300 304 308 310
262 262 263 264 263 259 253 249 249 251 252 253 254 254 253 252 253 255 258 261 260 253 250 254 260 263 264 266 263 256 250 248 251 254 255 257 257 256 256 257 258 258 257 257 258 260 263 264 265 265 266 265 264 264 265 265 265 266 270 275 277 277 277 279 283 287 289 288 289 291 291 290 288 287 285 284 285 288 293 298 305 309 310 309 307
262 260 259 260 262 262 260 257 255 253 252 251 252 254 255 255 256 257 255 252 250 249 248 250 254 257 260 265 268 263 256 255 257 259 262 265 265 264 262 260 259 259 261 263 262 259 256 257 260 263 266 268 269 269 270 269 267 266 269 272 274 276 278 280 283 286 288 289 290 289 286 284 283 283 284 287 292 297 303 308 311 309 305 303 303
261 259 259 258 258 258 258 258 258 257 254 252 252 254 257 258 256 253 250 247 246 248 248 248 250 252 253 257 262 263 261 260 261 264 268 269 268 267 265 263 262 262 261 260 260 260 259 258 259 263 269 275 277 275 272 271 269 269 271 275 279 282 284 284 285 286 287 287 286 282 279 279 282 285 290 296 302 306 308 306 302 300 300 301 302
260 260 259 258 257 255 253 254 255 255 252 249 250 252 255 257 255 250 248 246 246 247 248 248 249 250 250 253 257 257 258 260 260 261 262 262 261 260 259 258 258 261 262 261 259 261 262 262 266 274 280 281 279 276 273 273 273 275 279 283 285 285 284 284 285 284 283 281 277 275 278 284 289 294 299 302 303 302 298 295 295 298 301 304 306
261 260 260 259 257 254 252 250 250 250 249 247 248 251 254 256 255 252 249 246 245 245 247 248 249 250 252 255 255 251 252 255 256 255 256 257 259 259 259 258 257 257 260 261 260 259 258 261 270 278 276 270 269 273 274 273 273 278 282 283 282 281 281 281 281 279 276 274 274 279 285 289 293 297 298 296 294 292 291 293 298 301 305 308 310
261 260 260 259 258 255 253 251 249 247 247 247 249 251 253 255 255 255 253 251 248 247 248 250 250 250 250 252 253 251 251 252 253 253 255 258 263 264 263 261 259 257 258 256 254 254 255 258 263 262 257 258 265 269 269 268 271 278 282 280 278 278 278 277 275 272 271 273 278 283 287 290 293 291 289 288 288 289 293 298 302 306 308 310 310
261 261 261 261 260 259 257 255 253 250 248 248 250 253 254 254 254 254 254 254 252 250 249 250 251 250 249 250 252 255 257 256 255 254 255 259 265 269 269 266 263 262 264 260 252 252 255 257 257 256 255 258 262 263 264 267 273 279 280 276 274 274 273 271 269 269 272 277 281 285 287 289 288 285 284 286 289 294 298 301 304 306 307 307 307
261 263 263 263 263 262 260 258 257 255 254 252 252 253 254 256 256 256 255 254 252 249 248 248 249 249 248 250 253 258 263 265 260 255 257 263 267 273 282 283 274 267 263 255 246 247 254 258 258 258 259 259 260 261 264 268 273 276 274 270 269 269 267 268 270 274 278 281 282 284 286 285 283 283 285 289 293 297 299 301 303 304 305 305 306
261 263 265 266 266 266 264 262 260 259 258 257 255 255 257 258 260 260 258 255 252 251 249 248 250 253 253 253 255 257 262 268 267 262 264 266 262 261 264 260 252 246 244 244 244 247 255 258 256 257 257 258 260 264 266 269 271 270 268 266 265 267 269 273 277 279 280 281 281 282 282 280 279 281 284 288 293 296 297 300 302 303 303 303 304
263 265 266 268 269 268 266 265 263 262 260 258 257 257 258 260 262 263 262 260 256 253 253 252 254 259 260 260 260 259 260 263 260 256 259 254 242 233 223 212 215 223 232 242 249 253 256 257 255 254 255 257 262 267 267 266 264 262 263 265 267 271 275 277 278 279 279 280 282 280 278 276 275 277 282 287 291 294 297 299 299 299 300 302 304
267 268 270 271 272 270 266 265 264 264 263 260 258 258 258 260 262 263 263 263 259 255 253 253 256 261 263 264 264 262 261 260 251 252 259 252 232 222 218 217 225 234 238 247 260 267 267 265 258 255 257 259 261 264 262 260 260 260 264 268 270 273 275 275 276 277 278 279 279 277 274 271 271 275 281 286 291 294 296 296 297 299 301 304 305
268 271 273 276 277 273 267 265 264 263 263 262 260 261 262 263 265 265 263 263 260 256 253 252 254 258 261 263 264 262 262 261 252 250 257 252 237 230 234 247 268 289 286 273 280 284 280 276 266 258 258 256 255 257 257 257 260 263 267 271 273 273 274 274 275 275 276 276 276 273 270 270 273 278 285 290 294 295 295 296 299 302 304 306 308
270 272 275 277 278 275 269 266 264 261 261 261 261 264 266 268 269 268 266 265 263 259 255 252 251 255 258 261 265 265 263 262 258 257 258 255 255 265 279 289 299 315 317 286 279 280 277 273 265 258 256 254 253 256 257 259 264 268 271 273 273 272 273 273 272 272 272 271 268 267 270 275 281 287 292 295 295 295 296 298 302 305 307 309 311
270 271 273 275 276 274 269 266 265 262 260 260 260 263 266 267 268 267 267 268 266 262 258 252 249 250 252 256 261 265 267 269 270 272 275 276 279 291 308 321 325 322 303 272 269 270 270 271 269 266 265 264 264 267 269 272 275 274 273 272 270 269 269 268 268 268 266 264 264 269 276 283 288 292 293 294 294 296 298 302 305 308 311 312 313
268 268 269 271 272 272 268 265 264 264 263 263 263 264 265 266 267 266 266 267 267 265 262 258 252 250 250 252 255 260 266 273 277 281 287 292 297 303 313 321 321 311 292 274 269 269 272 275 275 275 273 272 272 273 274 274 273 271 270 268 266 265 264 264 264 262 260 262 268 275 281 286 289 291 292 294 296 298 301 304 308 311 312 313 313
265 264 265 267 268 268 266 264 264 266 267 266 265 264 264 264 266 267 267 266 266 265 264 262 259 256 255 256 258 260 263 268 274 280 285 292 297 303 308 311 312 305 291 284 283 283 282 280 278 277 275 274 273 273 272 272 270 268 267 266 264 263 263 261 260 258 260 265 271 276 282 286 289 292 294 296 298 301 304 308 311 312 312 314 316
261 261 261 262 262 263 263 263 264 265 265 264 262 261 262 265 267 268 267 267 268 269 270 270 269 268 267 265 265 266 268 271 274 279 283 288 292 297 302 306 306 301 293 288 281 275 270 268 268 268 268 269 270 270 271 270 269 268 267 266 265 263 261 258 256 256 260 266 271 277 284 288 291 295 298 299 301 304 307 310 311 311 313 316 318
257 258 257 256 257 258 259 259 260 259 258 258 259 259 261 264 267 268 266 264 266 269 273 274 275 275 274 273 271 270 270 272 275 277 280 284 288 293 298 303 304 302 298 293 286 277 270 265 262 261 261 263 264 265 265 266 266 265 264 263 261 260 257 253 252 255 261 267 274 281 286 291 295 298 300 302 304 307 308 308 309 312 317 319 319
256 255 253 251 251 253 254 254 253 253 252 253 255 257 260 262 265 266 264 262 262 266 270 274 277 278 278 278 278 276 274 273 273 273 275 277 280 284 289 292 294 295 294 292 289 285 280 276 272 269 268 267 266 266 266 266 266 265 264 261 258 255 251 250 251 256 264 271 278 284 289 294 298 300 302 305 307 307 306 307 310 315 319 319 318
255 252 249 247 247 248 249 250 250 250 251 252 254 257 260 262 263 264 264 263 264 267 271 275 278 281 283 284 284 282 281 279 277 275 273 273 275 277 279 281 283 284 284 284 283 282 280 278 276 275 273 271 270 269 268 267 266 266 264 260 255 251 249 250 254 262 268 275 280 286 292 296 299 301 304 306 306 305 305 308 313 317 318 317 316
256 251 248 246 246 247 248 249 249 250 251 253 255 258 260 262 263 263 264 265 266 269 272 276 279 281 284 286 286 284 283 282 280 277 274 273 273 274 276 278 279 279 280 279 278 277 276 274 272 271 271 270 268 268 267 266 265 264 262 259 254 252 252 254 260 266 272 277 282 288 293 296 300 302 304 304 304 304 307 311 314 316 316 316 317
258 252 248 246 246 247 249 250 251 252 253 254 256 258 261 263 263 263 263 264 266 269 273 276 278 280 281 282 282 282 281 280 278 275 273 272 271 272 273 274 275 276 277 277 277 275 274 273 272 271 270 269 269 270 269 268 265 263 262 260 257 256 256 259 264 269 274 279 284 288 293 297 299 300 301 302 304 306 309 311 313 314 315 316 318
261 257 253 250 248 249 251 252 254 256 257 258 259 261 262 264 264 264 263 263 265 268 270 272 274 275 276 277 277 277 277 275 273 272 270 269 269 269 270 271 273 274 275 275 275 274 274 274 273 272 272 273 273 273 272 270 268 266 264 263 262 261 261 263 267 271 275 280 284 288 292 295 296 297 299 302 305 308 309 309 310 312 315 317 318
262 260 258 255 253 252 252 253 254 255 257 258 261 264 265 265 265 264 264 264 264 265 266 268 269 269 270 270 271 270 270 268 267 267 267 267 268 268 269 270 270 271 271 271 271 272 273 273 273 273 273 272 272 271 270 269 267 266 266 266 265 265 265 266 269 272 276 279 282 286 289 291 293 295 299 303 306 306 306 307 310 313 316 317 318
261 261 260 259 257 255 254 254 254 254 255 258 261 262 263 263 264 264 265 265 266 267 267 268 268 268 268 267 266 264 263 262 262 263 264 265 267 267 268 269 269 269 269 269 269 269 270 270 270 270 269 268 267 267 267 266 266 266 266 266 267 267 267 268 270 272 275 277 280 283 286 289 292 296 300 303 304 304 304 307 311 314 316 316 316
262 262 261 261 259 258 256 254 254 254 255 256 257 258 259 260 262 264 265 267 268 269 270 270 270 269 268 266 264 262 261 261 261 261 263 264 265 266 267 268 269 269 269 268 268 268 268 268 268 267 266 265 265 265 265 265 265 265 265 266 266 267 267 268 270 272 274 276 279 282 286 289 293 296 299 301 302 303 304 308 311 313 314 315 315
262 263 262 262 261 260 258 257 256 256 255 254 254 254 256 257 259 261 263 265 266 266 267 267 267 266 265 264 263 261 261 260 261 261 263 265 266 267 268 269 269 270 270 270 269 269 268 268 267 267 266 265 265 266 266 266 265 265 265 265 265 265 267 268 269 271 274 276 280 283 287 291 293 295 297 299 301 302 305 308 310 312 313 313 313
259 260 260 261 261 262 261 260 259 258 257 256 256 256 256 257 258 259 260 261 262 262 263 263 262 262 261 261 260 259 259 259 260 262 264 266 268 269 269 269 269 270 270 269 269 269 268 268 267 266 266 265 265 265 265 265 264 264 264 264 265 266 268 270 271 273 275 278 281 285 288 290 292 293 296 298 300 302 304 306 308 310 311 312 313
257 257 258 259 260 261 262 261 261 260 259 258 257 256 256 257 258 258 259 260 260 261 261 260 260 259 259 258 258 258 258 259 260 262 264 266 268 269 270 270 269 269 269 269 269 269 269 268 267 266 266 265 265 265 265 265 265 264 265 265 267 268 269 271 273 275 278 280 283 285 287 289 290 292 294 297 299 301 302 304 306 308 310 311 312
256 254 254 255 256 258 259 260 261 261 261 260 259 258 257 257 257 257 258 258 258 259 259 259 259 259 258 258 259 259 259 260 262 263 264 265 267 269 270 270 270 270 271 271 271 270 270 269 269 267 266 266 265 265 264 264 265 265 266 267 268 269 270 273 275 277 279 281 283 284 286 288 290 291 294 296 298 299 300 302 305 307 309 310 311
259 256 254 253 254 256 258 259 261 263 264 264 263 261 259 258 258 258 258 258 258 258 259 259 259 259 259 260 261 262 263 263 264 264 265 266 268 269 270 271 272 272 273 272 272 272 271 271 270 269 268 267 267 266 266 265 265 265 267 268 270 271 273 274 276 278 279 280 281 283 285 287 289 291 293 295 297 298 299 301 303 305 307 309 309
263 262 259 256 255 256 259 261 263 264 263 263 263 263 263 261 260 259 259 259 259 259 259 260 260 261 261 262 263 263 264 264 265 265 266 267 268 269 270 271 272 272 272 272 272 272 272 272 272 271 269 268 267 267 267 267 266 267 268 269 271 272 273 274 275 276 278 279 281 283 285 287 289 290 292 294 295 296 298 300 302 304 306 307 308
261 260 258 255 253 252 254 257 260 261 262 262 263 264 265 266 265 264 263 263 262 262 261 261 261 261 262 262 262 263 263 263 264 264 265 266 267 267 268 269 270 270 270 270 271 272 272 272 272 271 270 269 268 268 268 268 267 267 268 269 270 271 272 273 274 275 277 279 281 283 285 286 288 290 291 292 293 295 297 299 301 303 305 306 306
Height
5883 5883 5885 5886 5886 5887 5888 5889 5890 5891 5892 5892 5893 5894 5895 5897 5898 5899 5900 5901 5901 5902 5903 5903 5904 5904 5905 5906 5906 5907 5908 5909 5909 5910 5910 5911 5911 5912 5913 5914 5915 5916 5916 5917 5917 5918 5917 5917 5918 5918 5918 5918 5918 5919 5919 5919 5919 5919 5919 5920 5920 5920 5920 5920 5920 5920 5919 5918 5918 5918 5918 5917 5917 5916 5915 5914 5913 5911 5909 5906 5905 5904 5904 5903 5902
5879 5880 5881 5883 5884 5886 5886 5887 5888 5889 5890 5891 5892 5892 5893 5895 5896 5897 5898 5899 5899 5900 5901 5901 5902 5903 5903 5904 5905 5906 5906 5907 5908 5908 5909 5909 5910 5910 5911 5912 5913 5914 5914 5915 5916 5916 5916 5916 5917 5917 5917 5917 5917 5917 5917 5917 5917 5918 5918 5918 5918 5919 5919 5918 5918 5918 5917 5916 5916 5916 5915 5915 5915 5914 5913 5912 5911 5909 5907 5904 5902 5902 5902 5901 5901
5876 5877 5878 5880 5881 5883 5885 5886 5887 5888 5889 5890 5890 5891 5891 5892 5893 5895 5896 5896 5897 5898 5899 5900 5900 5901 5902 5902 5903 5904 5905 5906 5906 5907 5907 5908 5908 5909 5909 5910 5911 5912 5912 5913 5914 5914 5915 5915 5915 5916 5916 5916 5916 5915 5915 5916 5916 5916 5917 5917 5917 5917 5916 5916 5916 5915 5915 5914 5914 5914 5914 5913 5912 5912 5911 5910 5909 5907 5905 5903 5901 5900 5899 5898 5898
5875 5876 5877 5879 5879 5881 5883 5884 5885 5886 5887 5888 5888 5889 5889 5890 5891 5892 5893 5894 5895 5896 5896 5897 5898 5899 5900 5901 5901 5902 5903 5904 5905 5905 5906 5907 5907 5907 5908 5909 5909 5910 5910 5911 5912 5912 5913 5913 5914 5914 5914 5914 5914 5914 5914 5914 5915 5915 5915 5915 5915 5914 5914 5914 5913 5913 5912 5912 5911 5911 5911 5911 5910 5909 5909 5908 5906 5905 5903 5900 5898 5897 5895 5894 5893
5875 5875 5876 5878 5879 5880 5880 5882 5883 5884 5884 5885 5886 5886 5887 5888 5889 5890 5891 5892 5893 5893 5894 5895 5896 5897 5898 5899 5900 5900 5901 5902 5903 5903 5904 5905 5906 5906 5906 5907 5907 5908 5908 5909 5910 5910 5911 5911 5912 5912 5912 5912 5913 5913 5913 5913 5913 5913 5913 5913 5912 5912 5911 5911 5910 5910 5910 5909 5909 5908 5908 5908 5907 5907 5906 5904 5903 5901 5900 5898 5896 5894 5892 5890 5889
5873 5873 5873 5875 5876 5877 5878 5879 5880 5880 5881 5882 5883 5883 5884 5885 5886 5888 5889 5890 5890 5891 5892 5893 5894 5895 5896 5897 5898 5898 5899 5900 5900 5901 5902 5903 5904 5904 5905 5905 5905 5906 5907 5907 5908 5908 5909 5909 5909 5910 5910 5910 5911 5911 5911 5911 5911 5911 5911 5910 5910 5909 5909 5909 5908 5908 5907 5906 5906 5905 5905 5905 5904 5904 5903 5901 5898 5897 5896 5895 5893 5891 5889 5887 5885
5868 5869 5870 5871 5873 5874 5875 5876 5876 5877 5878 5879 5879 5881 5882 5883 5884 5885 5886 5887 5888 5889 5890 5891 5892 5893 5893 5894 5895 5896 5897 5898 5898 5899 5899 5900 5901 5902 5903 5903 5904 5905 5905 5906 5906 5906 5907 5907 5907 5908 5908 5908 5908 5909 5909 5909 5909 5909 5909 5908 5908 5907 5907 5906 5906 5905 5905 5904 5903 5902 5902 5901 5901 5900 5900 5898 5896 5895 5893 5892 5890 5888 5885 5884 5882
5864 5865 5866 5868 5870 5871 5872 5873 5874 5875 5875 5876 5877 5878 5880 5881 5882 5883 5884 5885 5886 5887 5888 5889 5889 5890 5891 5892 5892 5893 5895 5895 5896 5896 5897 5897 5898 5899 5900 5901 5902 5903 5903 5904 5904 5905 5905 5905 5905 5906 5906 5906 5906 5907 5907 5907 5906 5906 5906 5906 5905 5905 5904 5904 5903 5902 5902 5901 5900 5899 5898 5898 5897 5896 5896 5895 5894 5892 5890 5889 5887 5884 5882 5881 5879
5862 5863 5863 5865 5867 5869 5870 5872 5873 5874 5875 5876 5877 5877 5878 5879 5880 5881 5882 5883 5884 5885 5886 5887 5887 5888 5889 5889 5890 5891 5892 5893 5894 5894 5894 5895 5895 5896 5897 5898 5899 5900 5901 5901 5902 5902 5902 5903 5903 5903 5903 5903 5904 5904 5904 5904 5904 5903 5903 5903 5903 5902 5902 5901 5900 5899 5899 5898 5897 5896 5895 5894 5893 5892 5892 5891 5890 5888 5886 5885 5883 5881 5880 5878 5876
5860 5862 5862 5863 5865 5866 5867 5869 5871 5872 5874 5875 5876 5877 5878 5878 5879 5880 5880 5881 5882 5883 5884 5885 5886 5887 5887 5887 5888 5889 5890 5890 5891 5891 5892 5892 5893 5894 5895 5896 5896 5897 5899 5899 5899 5900 5900 5900 5900 5900 5900 5900 5901 5901 5900 5900 5900 5900 5900 5899 5899 5899 5898 5898 5897 5896 5895 5895 5894 5893 5891 5890 5889 5888 5887 5886 5885 5883 5881 5880 5879 5878 5876 5875 5873
5857 5860 5861 5863 5864 5865 5866 5867 5869 5870 5871 5872 5874 5875 5876 5877 5877 5878 5879 5879 5880 5880 5881 5883 5884 5884 5885 5885 5886 5887 5888 5888 5888 5888 5889 5890 5890 5891 5892 5893 5893 5895 5897 5897 5897 5897 5897 5897 5897 5897 5897 5897 5897 5897 5897 5896 5896 5896 5896 5895 5895 5895 5895 5894 5893 5893 5892 5891 5890 5889 5887 5886 5885 5884 5883 5881 5880 5878 5877 5876 5875 5874 5872 5871 5870
5855 5857 5859 5861 5863 5864 5865 5865 5866 5867 5868 5869 5870 5871 5872 5873 5874 5875 5876 5877 5877 5878 5879 5880 5881 5881 5882 5883 5884 5885 5885 5885 5885 5885 5886 5887 5887 5888 5889 5890 5890 5892 5894 5895 5895 5895 5895 5895 5895 5894 5894 5894 5894 5893 5893 5892 5892 5892 5892 5891 5891 5891 5891 5890 5889 5889 5888 5887 5886 5885 5884 5882 5881 5880 5879 5877 5876 5874 5873 5871 5871 5870 5869 5868 5867
5853 5854 5856 5858 5859 5861 5862 5863 5864 5864 5865 5865 5865 5866 5867 5869 5870 5871 5872 5873 5874 5875 5876 5877 5877 5878 5879 5880 5881 5882 5882 5882 5882 5883 5883 5884 5884 5885 5886 5887 5887 5888 5890 5891 5891 5891 5891 5891 5891 5891 5891 5891 5890 5890 5889 5889 5888 5888 5888 5887 5887 5886 5886 5886 5885 5885 5884 5883 5882 5881 5880 5879 5877 5876 5874 5873 5871 5870 5868 5867 5866 5865 5864 5864 5864
5851 5852 5853 5855 5856 5857 5858 5860 5861 5861 5861 5862 5862 5862 5864 5865 5867 5868 5868 5869 5870 5872 5873 5874 5874 5875 5875 5876 5877 5878 5879 5879 5879 5880 5880 5881 5881 5882 5883 5884 5885 5886 5886 5887 5887 5888 5888 5887 5887 5887 5887 5887 5887 5886 5885 5884 5884 5884 5883 5883 5883 5882 5882 5882 5881 5880 5880 5879 5878 5876 5875 5874 5873 5871 5870 5868 5867 5866 5864 5863 5862 5861 5860 5860 5860
5849 5849 5851 5852 5852 5853 5854 5856 5857 5858 5858 5858 5859 5859 5860 5861 5862 5863 5864 5865 5866 5867 5868 5870 5870 5871 5872 5873 5873 5874 5875 5875 5875 5876 5876 5877 5878 5878 5879 5880 5882 5884 5884 5884 5884 5884 5883 5882 5881 5882 5883 5883 5883 5882 5881 5880 5880 5879 5879 5879 5878 5878 5878 5878 5877 5876 5876 5874 5873 5871 5870 5870 5869 5867 5866 5864 5863 5861 5860 5858 5857 5856 5856 5856 5856
5846 5847 5847 5848 5849 5849 5850 5851 5852 5853 5854 5855 5856 5856 5856 5857 5857 5858 5859 5860 5861 5863 5864 5865 5866 5867 5868 5868 5869 5870 5871 5871 5871 5872 5873 5874 5874 5874 5874 5876 5878 5880 5880 5879 5879 5879 5878 5877 5877 5878 5879 5879 5879 5878 5877 5876 5875 5875 5875 5874 5874 5874 5874 5873 5873 5872 5871 5870 5869 5867 5866 5866 5865 5863 5862 5860 5859 5857 5855 5854 5854 5853 5853 5853 5853
5844 5844 5844 5844 5845 5846 5847 5847 5848 5848 5849 5851 5852 5853 5853 5853 5853 5853 5854 5856 5857 5858 5860 5861 5861 5862 5862 5863 5864 5866 5867 5867 5867 5867 5868 5870 5870 5870 5870 5870 5872 5875 5875 5874 5874 5875 5875 5874 5874 5874 5874 5873 5873 5873 5872 5871 5871 5871 5870 5870 5870 5869 5869 5868 5868 5868 5867 5866 5864 5863 5862 5861 5860 5859 5858 5856 5855 5853 5852 5851 5851 5851 5850 5850 5850
5841 5841 5841 5841 5842 5842 5843 5844 5844 5844 5845 5846 5847 5848 5849 5849 5849 5849 5852 5854 5854 5855 5856 5857 5858 5858 5858 5858 5859 5860 5862 5862 5862 5862 5863 5864 5865 5865 5865 5865 5867 5869 5871 5871 5870 5872 5873 5871 5868 5867 5867 5867 5867 5867 5867 5867 5866 5866 5866 5866 5866 5865 5864 5864 5864 5863 5862 5861 5860 5859 5858 5857 5856 5855 5854 5852 5851 5850 5850 5849 5849 5848 5848 5847 5847
5838 5838 5838 5838 5838 5839 5840 5841 5841 5841 5842 5842 5843 5843 5843 5843 5845 5848 5850 5851 5851 5851 5852 5853 5854 5854 5854 5854 5854 5855 5857 5857 5857 5857 5858 5859 5860 5861 5861 5861 5863 5864 5865 5866 5868 5869 5869 5865 5862 5861 5861 5861 5862 5862 5862 5862 5862 5862 5862 5862 5861 5860 5860 5860 5860 5859 5857 5856 5855 5854 5853 5852 5851 5851 5850 5849 5849 5848 5848 5847 5846 5846 5845 5845 5845
5835 5836 5836 5836 5836 5836 5837 5837 5838 5838 5839 5839 5839 5839 5838 5839 5842 5846 5846 5846 5846 5847 5848 5849 5850 5849 5850 5850 5850 5851 5852 5854 5854 5854 5854 5854 5854 5854 5855 5857 5858 5858 5860 5862 5863 5864 5864 5860 5856 5855 5855 5856 5857 5857 5857 5858 5858 5858 5858 5857 5855 5855 5855 5855 5855 5854 5853 5852 5851 5850 5849 5848 5847 5846 5846 5846 5846 5845 5845 5844 5844 5844 5843 5843 5843
5833 5833 5833 5833 5834 5834 5834 5834 5835 5835 5835 5835 5835 5835 5835 5836 5840 5842 5841 5840 5841 5842 5843 5844 5845 5845 5846 5847 5847 5847 5848 5849 5851 5851 5851 5851 5851 5849 5850 5852 5853 5853 5854 5856 5856 5856 5855 5854 5853 5853 5853 5852 5853 5852 5852 5853 5854 5854 5853 5852 5851 5851 5851 5851 5850 5849 5849 5848 5847 5846 5845 5844 5844 5844 5843 5843 5843 5843 5843 5843 5843 5842 5842 5841 5841
5830 5830 5830 5830 5831 5831 5831 5832 5832 5832 5832 5832 5832 5832 5832 5833 5835 5836 5837 5837 5838 5838 5839 5840 5841 5841 5842 5843 5844 5844 5844 5845 5847 5847 5847 5846 5844 5844 5845 5848 5849 5848 5848 5849 5851 5850 5848 5847 5848 5850 5850 5848 5847 5847 5848 5849 5849 5849 5848 5848 5848 5848 5847 5846 5846 5845 5845 5844 5843 5842 5842 5842 5841 5841 5841 5841 5841 5841 5841 5841 5841 5841 5840 5839 5838
5826 5826 5826 5827 5827 5827 5828 5828 5829 5829 5829 5829 5829 5829 5829 5830 5830 5831 5832 5833 5834 5834 5835 5836 5836 5837 5838 5839 5840 5841 5841 5841 5842 5842 5840 5838 5837 5838 5841 5842 5844 5844 5842 5841 5844 5844 5842 5843 5845 5846 5845 5842 5842 5843 5844 5844 5845 5844 5843 5843 5843 5843 5843 5842 5842 5841 5841 5840 5840 5840 5839 5839 5839 5839 5839 5839 5839 5839 5839 5839 5839 5838 5837 5836 5834
5823 5823 5823 5823 5823 5824 5824 5824 5825 5826 5826 5826 5826 5826 5826 5827 5827 5827 5828 5829 5830 5831 5831 5831 5832 5833 5834 5834 5835 5836 5836 5837 5837 5836 5835 5834 5833 5834 5836 5835 5836 5837 5835 5835 5837 5836 5836 5839 5842 5841 5840 5839 5838 5839 5839 5839 5839 5839 5839 5839 5838 5838 5838 5838 5838 5838 5838 5837 5837 5837 5837 5837 5837 5837 5837 5837 5837 5837 5837 5836 5836 5835 5834 5833 5831
5820 5820 5820 5820 5820 5820 5821 5821 5821 5822 5822 5823 5823 5823 5824 5824 5824 5824 5824 5825 5826 5827 5827 5827 5828 5828 5829 5829 5830 5830 5831 5832 5832 5831 5831 5831 5830 5829 5829 5827 5827 5829 5829 5829 5830 5829 5830 5834 5836 5834 5834 5835 5834 5834 5834 5834 5834 5834 5834 5834 5834 5834 5834 5834 5835 5835 5834 5834 5835 5835 5835 5836 5836 5835 5835 5835 5834 5834 5834 5833 5833 5832 5831 5830 5829
5817 5817 5817 5817 5818 5818 5818 5818 5818 5818 5819 5819 5820 5820 5820 5821 5821 5821 5821 5821 5822 5823 5823 5824 5824 5824 5824 5825 5825 5826 5826 5826 5826 5827 5827 5827 5826 5825 5822 5818 5818 5821 5822 5821 5822 5824 5826 5829 5829 5829 5830 5830 5830 5830 5830 5830 5831 5831 5830 5830 5830 5830 5831 5831 5831 5831 5831 5832 5832 5833 5833 5834 5833 5833 5833 5833 5832 5832 5831 5831 5830 5830 5829 5828 5826
5814 5814 5814 5815 5815 5815 5815 5815 5815 5815 5815 5816 5816 5817 5817 5817 5817 5817 5817 5817 5818 5818 5820 5821 5820 5820 5821 5822 5822 5823 5823 5822 5822 5821 5821 5822 5823 5823 5822 5817 5812 5811 5812 5814 5818 5821 5823 5824 5824 5825 5826 5826 5825 5826 5826 5827 5827 5827 5827 5827 5827 5827 5827 5827 5828 5828 5829 5829 5830 5831 5831 5831 5831 5831 5831 5831 5830 5829 5829 5828 5827 5827 5826 5825 5824
5811 5811 5811 5812 5812 5812 5812 5812 5812 5812 5812 5813 5813 5814 5814 5814 5814 5814 5814 5814 5814 5815 5816 5817 5817 5817 5818 5819 5819 5819 5819 5819 5818 5816 5815 5816 5817 5817 5817 5817 5812 5807 5809 5815 5819 5820 5820 5820 5821 5821 5821 5822 5822 5823 5823 5823 5823 5823 5823 5824 5824 5824 5824 5824 5825 5825 5826 5827 5827 5828 5829 5829 5829 5830 5829 5829 5828 5827 5826 5825 5825 5824 5823 5822 5820
5808 5808 5808 5809 5809 5809 5809 5809 5809 5809 5809 5810 5810 5811 5811 5811 5811 5811 5811 5811 5812 5812 5813 5813 5814 5814 5815 5815 5815 5815 5815 5815 5815 5813 5811 5812 5811 5810 5811 5813 5812 5811 5814 5816 5817 5817 5817 5818 5818 5818 5819 5820 5820 5820 5820 5820 5820 5820 5820 5820 5820 5821 5821 5822 5822 5823 5824 5824 5825 5825 5826 5827 5827 5827 5827 5826 5825 5825 5824 5823 5822 5821 5819 5818 5816
5804 5805 5805 5806 5806 5806 5806 5806 5806 5807 5807 5807 5807 5808 5808 5808 5808 5808 5809 5809 5809 5809 5810 5810 5811 5811 5811 5812 5812 5812 5812 5811 5812 5811 5809 5808 5807 5806 5806 5808 5809 5811 5813 5813 5814 5814 5815 5816 5816 5816 5817 5817 5817 5817 5817 5816 5816 5816 5816 5817 5817 5818 5819 5820 5820 5821 5822 5822 5822 5823 5823 5824 5824 5824 5824 5823 5822 5822 5821 5819 5818 5817 5815 5814 5812
5801 5802 5802 5802 5803 5803 5803 5803 5803 5804 5804 5804 5805 5805 5805 5805 5805 5806 5806 5806 5806 5806 5807 5807 5808 5808 5808 5808 5808 5809 5809 5809 5808 5808 5807 5807 5805 5803 5801 5802 5804 5807 5809 5810 5811 5812 5812 5813 5814 5815 5815 5815 5814 5813 5813 5813 5813 5813 5814 5814 5815 5816 5817 5818 5818 5819 5819 5820 5820 5820 5821 5821 5821 5821 5820 5820 5819 5818 5817 5816 5814 5813 5811 5810 5808
5798 5799 5799 5799 5799 5800 5800 5800 5801 5801 5802 5802 5802 5803 5803 5803 5803 5803 5803 5803 5804 5804 5804 5804 5805 5805 5805 5805 5805 5805 5805 5805 5805 5804 5804 5804 5803 5802 5800 5801 5802 5803 5805 5807 5809 5809 5809 5810 5811 5811 5812 5811 5811 5810 5810 5810 5811 5811 5812 5813 5814 5814 5815 5816 5816 5817 5817 5818 5818 5818 5818 5818 5818 5818 5817 5817 5816 5815 5814 5812 5811 5809 5807 5806 5804
5795 5795 5796 5796 5796 5797 5797 5798 5798 5799 5799 5800 5800 5800 5801 5801 5801 5801 5801 5801 5802 5802 5802 5802 5802 5802 5802 5802 5802 5802 5802 5802 5802 5802 5801 5800 5800 5800 5799 5799 5800 5801 5803 5804 5805 5806 5806 5806 5807 5808 5809 5809 5808 5808 5808 5809 5810 5810 5811 5812 5812 5813 5813 5814 5814 5815 5815 5815 5816 5816 5816 5816 5816 5815 5815 5814 5813 5812 5811 5809 5807 5806 5804 5802 5801
5792 5792 5793 5793 5794 5794 5795 5795 5796 5797 5797 5797 5797 5798 5798 5798 5798 5798 5799 5799 5799 5800 5800 5800 5800 5799 5799 5799 5799 5799 5799 5799 5799 5799 5798 5798 5797 5797 5797 5798 5798 5799 5800 5801 5802 5802 5802 5803 5804 5805 5806 5807 5807 5807 5807 5807 5808 5809 5809 5810 5810 5810 5811 5811 5812 5812 5813 5813 5813 5814 5814 5814 5813 5813 5812 5811 5810 5809 5808 5806 5804 5802 5801 5799 5797
5788 5789 5790 5790 5791 5791 5792 5793 5793 5794 5794 5794 5795 5795 5795 5796 5796 5796 5796 5796 5797 5797 5797 5797 5797 5797 5797 5797 5797 5797 5797 5797 5796 5796 5795 5795 5795 5795 5795 5795 5796 5797 5798 5799 5800 5800 5801 5802 5803 5804 5805 5805 5805 5805 5805 5805 5806 5806 5807 5808 5808 5808 5809 5809 5810 5810 5810 5811 5811 5811 5811 5811 5810 5810 5809 5808 5807 5805 5804 5802 5801 5799 5797 5796 5794
5784 5786 5787 5787 5788 5788 5789 5790 5790 5791 5791 5791 5792 5792 5793 5793 5793 5793 5793 5794 5794 5794 5794 5794 5795 5795 5795 5795 5795 5795 5795 5794 5794 5794 5793 5793 5792 5792 5792 5793 5793 5794 5795 5796 5798 5798 5799 5800 5801 5802 5802 5803 5803 5803 5803 5803 5803 5804 5805 5805 5805 5806 5806 5807 5807 5808 5808 5808 5808 5808 5808 5808 5807 5807 5806 5804 5803 5802 5800 5799 5797 5796 5794 5792 5790
5782 5783 5783 5784 5785 5785 5786 5787 5787 5787 5788 5788 5789 5789 5789 5790 5790 5790 5791 5791 5791 5791 5792 5792 5792 5792 5792 5792 5793 5793 5793 5792 5792 5792 5792 5791 5791 5791 5791 5792 5792 5793 5793 5794 5795 5795 5796 5797 5797 5798 5799 5799 5800 5800 5800 5801 5801 5802 5802 5802 5803 5803 5804 5804 5805 5805 5805 5805 5805 5806 5805 5805 5804 5803 5802 5801 5800 5798 5797 5796 5794 5792 5790 5789 5787
5779 5780 5780 5781 5782 5782 5783 5783 5784 5784 5785 5785 5786 5786 5786 5787 5787 5787 5788 5788 5789 5789 5789 5789 5790 5790 5790 5790 5790 5790 5790 5790 5790 5790 5790 5789 5790 5790 5790 5790 5791 5791 5792 5792 5793 5793 5794 5794 5795 5795 5796 5797 5797 5798 5798 5799 5799 5799 5799 5800 5800 5801 5801 5802 5802 5802 5802 5802 5802 5802 5802 5801 5801 5799 5798 5797 5796 5795 5794 5792 5790 5789 5787 5785 5784
5777 5778 5778 5778 5779 5779 5780 5780 5781 5781 5782 5782 5783 5783 5783 5784 5784 5785 5785 5785 5786 5786 5786 5787 5787 5787 5787 5787 5788 5788 5788 5787 5787 5787 5787 5787 5788 5788 5789 5789 5789 5790 5790 5791 5791 5792 5792 5793 5793 5794 5794 5794 5795 5795 5796 5796 5797 5797 5796 5797 5797 5798 5798 5798 5799 5799 5799 5799 5799 5799 5798 5798 5796 5795 5795 5794 5793 5791 5789 5788 5787 5785 5784 5782 5780
5775 5775 5776 5776 5776 5776 5777 5777 5778 5778 5779 5780 5780 5780 5781 5781 5781 5782 5782 5782 5783 5783 5783 5784 5784 5784 5784 5785 5785 5785 5785 5785 5785 5785 5785 5785 5786 5786 5787 5787 5788 5788 5788 5789 5789 5789 5790 5790 5791 5791 5791 5791 5792 5792 5792 5793 5794 5794 5793 5793 5794 5795 5795 5795 5796 5796 5796 5795 5795 5795 5794 5793 5793 5792 5791 5790 5789 5787 5785 5784 5783 5782 5780 5778 5776
5772 5773 5773 5773 5774 5774 5774 5774 5775 5776 5776 5777 5777 5777 5778 5778 5778 5778 5779 5779 5780 5780 5781 5781 5781 5781 5782 5782 5782 5782 5782 5782 5783 5783 5783 5783 5784 5784 5785 5785 5786 5786 5786 5786 5787 5787 5787 5787 5787 5787 5787 5787 5788 5788 5789 5789 5790 5790 5790 5790 5791 5791 5792 5792 5792 5792 5792 5791 5791 5791 5790 5790 5789 5788 5787 5786 5785 5783 5781 5780 5779 5778 5776 5774 5772
5769 5769 5770 5770 5771 5771 5771 5771 5772 5772 5773 5773 5774 5774 5775 5775 5775 5775 5775 5776 5777 5777 5777 5778 5778 5779 5779 5779 5779 5780 5780 5780 5780 5780 5781 5781 5781 5782 5782 5783 5783 5783 5784 5784 5784 5784 5784 5784 5784 5784 5784 5784 5784 5785 5785 5786 5787 5787 5787 5787 5787 5788 5788 5788 5789 5789 5788 5788 5787 5787 5787 5786 5785 5784 5783 5782 5781 5779 5778 5777 5776 5774 5772 5770 5768
5766 5766 5767 5767 5767 5768 5768 5768 5768 5768 5769 5770 5770 5771 5771 5771 5771 5772 5772 5773 5773 5774 5774 5774 5775 5775 5776 5776 5777 5777 5777 5778 5778 5778 5778 5778 5779 5779 5779 5780 5781 5781 5781 5781 5781 5781 5781 5781 5781 5782 5782 5782 5782 5782 5783 5783 5784 5784 5784 5784 5784 5784 5784 5784 5785 5785 5784 5784 5783 5783 5783 5782 5781 5780 5779 5778 5777 5776 5774 5773 5772 5770 5768 5767 5765
5762 5763 5763 5763 5764 5764 5764 5764 5764 5765 5766 5766 5767 5767 5767 5768 5768 5768 5769 5769 5770 5770 5771 5771 5772 5772 5773 5773 5773 5774 5775 5775 5775 5775 5775 5775 5776 5776 5776 5777 5777 5778 5778 5778 5779 5779 5779 5779 5779 5779 5779 5779 5779 5779 5780 5780 5781 5781 5781 5781 5781 5781 5781 5781 5781 5781 5780 5780 5780 5779 5779 5778 5777 5776 5775 5774 5773 5772 5770 5769 5768 5766 5765 5763 5761
5758 5759 5759 5760 5760 5761 5761 5761 5761 5762 5762 5763 5763 5763 5764 5764 5765 5765 5765 5766 5766 5767 5768 5768 5768 5769 5769 5770 5770 5771 5772 5772 5772 5773 5773 5772 5772 5773 5773 5773 5774 5774 5775 5775 5775 5775 5775 5775 5775 5775 5775 5776 5776 5776 5776 5777 5777 5777 5777 5777 5777 5777 5777 5777 5777 5777 5777 5776 5775 5775 5775 5774 5773 5772 5771 5770 5769 5768 5766 5765 5764 5763 5761 5760 5758
5754 5754 5755 5755 5756 5757 5758 5758 5758 5759 5759 5760 5760 5760 5760 5761 5761 5762 5762 5763 5763 5763 5764 5765 5765 5765 5766 5766 5767 5768 5768 5769 5769 5770 5770 5769 5769 5770 5770 5770 5770 5771 5771 5771 5772 5772 5772 5772 5772 5772 5772 5772 5772 5772 5773 5773 5773 5774 5774 5774 5774 5773 5773 5773 5773 5773 5773 5772 5771 5771 5770 5770 5769 5768 5767 5767 5765 5764 5763 5762 5761 5759 5758 5756 5754
5749 5750 5751 5751 5752 5753 5754 5755 5755 5755 5755 5756 5756 5756 5757 5757 5758 5758 5758 5759 5759 5760 5760 5761 5761 5762 5762 5763 5763 5764 5765 5765 5766 5766 5766 5766 5766 5766 5766 5767 5767 5767 5767 5767 5768 5768 5768 5768 5768 5768 5768 5769 5769 5769 5769 5769 5770 5770 5770 5770 5770 5770 5770 5769 5769 5769 5768 5768 5767 5767 5766 5766 5765 5764 5763 5763 5761 5760 5759 5758 5757 5756 5754 5752 5750
5746 5746 5747 5748 5749 5750 5750 5751 5751 5751 5751 5751 5752 5752 5753 5753 5754 5754 5754 5755 5756 5756 5756 5757 5757 5758 5758 5759 5759 5760 5761 5761 5762 5762 5762 5762 5762 5762 5763 5763 5763 5763 5763 5763 5763 5763 5763 5764 5764 5764 5765 5765 5765 5765 5766 5766 5766 5766 5766 5766 5766 5766 5766 5766 5765 5765 5764 5764 5763 5763 5762 5762 5761 5760 5759 5758 5757 5756 5755 5754 5753 5752 5750 5749 5747
5743 5744 5744 5744 5745 5746 5747 5747 5748 5748 5748 5747 5748 5748 5749 5749 5750 5750 5750 5751 5752 5752 5752 5753 5753 5754 5754 5755 5755 5755 5756 5757 5757 5758 5758 5758 5759 5759 5759 5759 5759 5759 5759 5759 5759 5759 5759 5759 5760 5760 5760 5761 5761 5761 5761 5762 5762 5762 5762 5762 5762 5762 5762 5762 5761 5761 5760 5760 5759 5759 5758 5758 5757 5756 5755 5754 5753 5752 5751 5750 5749 5748 5746 5745 5743
5741 5741 5741 5741 5742 5742 5743 5743 5744 5744 5744 5743 5743 5744 5744 5745 5746 5746 5746 5747 5748 5748 5748 5749 5749 5749 5750 5750 5751 5751 5752 5752 5753 5753 5754 5754 5755 5755 5755 5755 5755 5755 5755 5755 5755 5755 5755 5755 5755 5755 5756 5756 5756 5757 5757 5757 5758 5758 5758 5757 5757 5757 5757 5758 5757 5757 5756 5755 5755 5754 5754 5754 5753 5752 5751 5750 5749 5748 5747 5746 5745 5744 5742 5741 5739
5736 5737 5736 5736 5737 5737 5737 5738 5739 5739 5739 5740 5740 5740 5740 5741 5741 5742 5743 5743 5744 5744 5744 5744 5745 5745 5745 5746 5746 5746 5747 5748 5748 5749 5749 5750 5750 5751 5751 5751 5751 5751 5750 5750 5750 5750 5750 5750 5750 5751 5751 5751 5752 5752 5753 5753 5753 5753 5753 5753 5753 5753 5753 5753 5753 5752 5752 5751 5751 5750 5750 5749 5749 5748 5747 5746 5745 5744 5743 5742 5741 5739 5738 5736 5735